| time (UTC) | temp C | wind direction | speed KPH | gust KPH | rain 1hr cm | rain 24hr cm | rain mn cm | humidity % | barometer mb |
| 20260503194203 | 19 | 228 | 4.8 | 4.8 | 0.00 | 0.00 | 0.00 | 35 | 1002.0 |
| 20260503193704 | 18 | 237 | 3.2 | 3.2 | 0.00 | 0.00 | 0.00 | 34 | 1002.0 |
| 20260503193204 | 17 | 227 | 4.8 | 4.8 | 0.00 | 0.00 | 0.00 | 34 | 1002.0 |
| 20260503192702 | 17 | 318 | 12.9 | 14.5 | 0.00 | 0.00 | 0.00 | 34 | 1003.0 |
| 20260503192203 | 17 | 233 | 4.8 | 4.8 | 0.00 | 0.00 | 0.00 | 34 | 1003.0 |
| 20260503191702 | 17 | 42 | 1.6 | 1.6 | 0.00 | 0.00 | 0.00 | 35 | 1003.0 |
| 20260503191203 | 17 | 342 | 0.0 | 0.0 | 0.00 | 0.00 | 0.00 | 33 | 1003.0 |
| 20260503190703 | 17 | 216 | 4.8 | 4.8 | 0.00 | 0.00 | 0.00 | 35 | 1003.0 |
| 20260503190203 | 17 | 252 | 4.8 | 4.8 | 0.00 | 0.00 | 0.00 | 33 | 1003.0 |
| 20260503185702 | 17 | 306 | 9.7 | 9.7 | 0.00 | 0.00 | 0.00 | 35 | 1003.0 |
| 20260503185204 | 17 | 252 | 4.8 | 4.8 | 0.00 | 0.00 | 0.00 | 34 | 1003.0 |
| 20260503184702 | 17 | 221 | 3.2 | 3.2 | 0.00 | 0.00 | 0.00 | 36 | 1003.0 |
| 20260503184202 | 17 | 256 | 8.0 | 9.7 | 0.00 | 0.00 | 0.00 | 34 | 1003.0 |
| 20260503183702 | 17 | 245 | 3.2 | 3.2 | 0.00 | 0.00 | 0.00 | 36 | 1003.0 |
| 20260503183202 | 17 | 348 | 3.2 | 3.2 | 0.00 | 0.00 | 0.00 | 36 | 1003.0 |
| 20260503182703 | 17 | 228 | 3.2 | 3.2 | 0.00 | 0.00 | 0.00 | 35 | 1004.0 |
| 20260503182203 | 16 | 174 | 4.8 | 4.8 | 0.00 | 0.00 | 0.00 | 36 | 1004.0 |
| 20260503181707 | 16 | 245 | 9.7 | 11.3 | 0.00 | 0.00 | 0.00 | 35 | 1004.0 |
| 20260503181202 | 16 | 180 | 8.0 | 9.7 | 0.00 | 0.00 | 0.00 | 35 | 1004.0 |
| 20260503180702 | 16 | 250 | 4.8 | 4.8 | 0.00 | 0.00 | 0.00 | 37 | 1004.0 |
| 20260503180203 | 16 | 262 | 4.8 | 4.8 | 0.00 | 0.00 | 0.00 | 36 | 1004.0 |
| 20260503175702 | 16 | 36 | 3.2 | 3.2 | 0.00 | 0.00 | 0.00 | 36 | 1004.0 |
| 20260503175202 | 16 | 235 | 4.8 | 4.8 | 0.00 | 0.00 | 0.00 | 37 | 1004.0 |
| 20260503174703 | 16 | 255 | 4.8 | 4.8 | 0.00 | 0.00 | 0.00 | 36 | 1004.0 |
| 20260503174202 | 16 | 237 | 3.2 | 3.2 | 0.00 | 0.00 | 0.00 | 36 | 1004.0 |
| 20260503173702 | 17 | 306 | 3.2 | 3.2 | 0.00 | 0.00 | 0.00 | 37 | 1004.0 |
| 20260503173202 | 16 | 270 | 4.8 | 4.8 | 0.00 | 0.00 | 0.00 | 36 | 1004.0 |
| 20260503172702 | 16 | 253 | 4.8 | 4.8 | 0.00 | 0.00 | 0.00 | 37 | 1005.0 |
| 20260503172203 | 16 | 300 | 8.0 | 9.7 | 0.00 | 0.00 | 0.00 | 35 | 1005.0 |
| 20260503171702 | 15 | 24 | 6.4 | 8.0 | 0.00 | 0.00 | 0.00 | 37 | 1005.0 |
| 20260503171203 | 15 | 257 | 6.4 | 8.0 | 0.00 | 0.00 | 0.00 | 38 | 1005.0 |
| 20260503170702 | 15 | 227 | 8.0 | 9.7 | 0.00 | 0.00 | 0.00 | 38 | 1005.0 |
| 20260503170202 | 15 | 260 | 9.7 | 9.7 | 0.00 | 0.00 | 0.00 | 37 | 1005.0 |
| 20260503160202 | 15 | 297 | 9.7 | 11.3 | 0.00 | 0.00 | 0.00 | 38 | 1005.0 |
| 20260503150702 | 15 | 204 | 8.0 | 9.7 | 0.00 | 0.00 | 0.00 | 36 | 1006.0 |
| 20260503150202 | 15 | 264 | 12.9 | 12.9 | 0.00 | 0.00 | 0.00 | 39 | 1006.0 |
| 20260503140205 | 12 | 258 | 3.2 | 3.2 | 0.00 | 0.00 | 0.00 | 43 | 1006.0 |
| 20260503131203 | 9 | 270 | 4.8 | 4.8 | 0.00 | 0.00 | 0.00 | 51 | 1006.0 |
| 20260503130703 | 8 | 257 | 3.2 | 3.2 | 0.00 | 0.00 | 0.00 | 53 | 1006.0 |
| 20260503130202 | 8 | 204 | 0.0 | 0.0 | 0.00 | 0.00 | 0.00 | 52 | 1006.0 |
| 20260503120202 | 6 | 256 | 3.2 | 3.2 | 0.00 | 0.00 | 0.00 | 58 | 1006.0 |
| 20260503110702 | 2 | 282 | 3.2 | 3.2 | 0.00 | 0.00 | 0.00 | 72 | 1007.0 |
| 20260503110203 | 1 | 290 | 0.0 | 0.0 | 0.00 | 0.00 | 0.00 | 74 | 1007.0 |
| 20260503100202 | 0 | 307 | 0.0 | 0.0 | 0.00 | 0.00 | 0.00 | 80 | 1007.0 |
| 20260503090204 | 0 | 264 | 0.0 | 0.0 | 0.00 | 0.00 | 0.00 | 81 | 1007.0 |
| 20260503081204 | 0 | 264 | 0.0 | 0.0 | 0.00 | 0.00 | 0.00 | 80 | 1007.0 |
| 20260503080704 | 0 | 264 | 0.0 | 0.0 | 0.00 | 0.00 | 0.00 | 80 | 1007.0 |
| 20260503080202 | 0 | 264 | 0.0 | 0.0 | 0.00 | 0.00 | 0.00 | 80 | 1007.0 |
| 20260503072703 | 1 | 264 | 0.0 | 0.0 | 0.00 | 0.00 | 0.00 | 80 | 1008.0 |
| 20260503072205 | 1 | 264 | 0.0 | 0.0 | 0.00 | 0.00 | 0.00 | 80 | 1008.0 |
| 20260503071702 | 1 | 264 | 0.0 | 0.0 | 0.00 | 0.00 | 0.00 | 80 | 1008.0 |
| 20260503071202 | 1 | 264 | 0.0 | 0.0 | 0.00 | 0.00 | 0.00 | 81 | 1008.0 |
| 20260503070703 | 1 | 264 | 0.0 | 0.0 | 0.00 | 0.00 | 0.00 | 81 | 1008.0 |
| 20260503070208 | 1 | 264 | 0.0 | 0.0 | 0.00 | 0.00 | 0.00 | 81 | 1008.0 |
| 20260503060202 | 1 | 264 | 0.0 | 0.0 | 0.00 | 0.00 | 0.00 | 81 | 1008.0 |
| 20260503054702 | 1 | 264 | 0.0 | 0.0 | 0.00 | 0.00 | 0.00 | 80 | 1008.0 |
| 20260503054202 | 1 | 264 | 0.0 | 0.0 | 0.00 | 0.00 | 0.00 | 79 | 1008.0 |
| 20260503053702 | 1 | 264 | 0.0 | 0.0 | 0.00 | 0.00 | 0.00 | 79 | 1008.0 |
| 20260503053202 | 1 | 264 | 0.0 | 0.0 | 0.00 | 0.00 | 0.00 | 78 | 1008.0 |
| 20260503052704 | 1 | 264 | 0.0 | 0.0 | 0.00 | 0.00 | 0.00 | 78 | 1008.0 |
| 20260503052202 | 1 | 264 | 0.0 | 0.0 | 0.00 | 0.00 | 0.00 | 78 | 1008.0 |
| 20260503051703 | 1 | 264 | 0.0 | 0.0 | 0.00 | 0.00 | 0.00 | 77 | 1008.0 |
| 20260503051203 | 1 | 264 | 0.0 | 0.0 | 0.00 | 0.00 | 0.00 | 77 | 1008.0 |
| 20260503050703 | 1 | 264 | 0.0 | 0.0 | 0.00 | 0.00 | 0.00 | 76 | 1008.0 |
| 20260503050202 | 1 | 264 | 0.0 | 0.0 | 0.00 | 0.00 | 0.00 | 76 | 1008.0 |
| 20260503045702 | 2 | 264 | 0.0 | 0.0 | 0.00 | 0.00 | 0.00 | 75 | 1008.0 |
| 20260503045202 | 2 | 264 | 0.0 | 0.0 | 0.00 | 0.00 | 0.00 | 74 | 1008.0 |
| 20260503044703 | 2 | 264 | 0.0 | 0.0 | 0.00 | 0.00 | 0.00 | 74 | 1008.0 |
| 20260503044202 | 2 | 264 | 0.0 | 0.0 | 0.00 | 0.00 | 0.00 | 74 | 1008.0 |
| 20260503043703 | 2 | 264 | 0.0 | 0.0 | 0.00 | 0.00 | 0.00 | 74 | 1008.0 |
| 20260503043202 | 2 | 264 | 0.0 | 0.0 | 0.00 | 0.00 | 0.00 | 74 | 1008.0 |
| 20260503042702 | 2 | 264 | 0.0 | 0.0 | 0.00 | 0.00 | 0.00 | 73 | 1008.0 |
| 20260503042203 | 2 | 264 | 0.0 | 0.0 | 0.00 | 0.00 | 0.00 | 74 | 1008.0 |
| 20260503041703 | 2 | 264 | 0.0 | 0.0 | 0.00 | 0.00 | 0.00 | 73 | 1008.0 |
| 20260503041202 | 2 | 264 | 0.0 | 0.0 | 0.00 | 0.00 | 0.00 | 73 | 1008.0 |
| 20260503040702 | 2 | 264 | 0.0 | 0.0 | 0.00 | 0.00 | 0.00 | 74 | 1008.0 |
| 20260503040202 | 2 | 264 | 0.0 | 0.0 | 0.00 | 0.00 | 0.00 | 74 | 1008.0 |
| 20260503035702 | 2 | 264 | 0.0 | 0.0 | 0.00 | 0.00 | 0.00 | 74 | 1008.0 |
| 20260503035203 | 2 | 264 | 0.0 | 0.0 | 0.00 | 0.00 | 0.00 | 73 | 1008.0 |
| 20260503034703 | 2 | 264 | 0.0 | 0.0 | 0.00 | 0.00 | 0.00 | 73 | 1008.0 |
| 20260503034202 | 2 | 264 | 0.0 | 0.0 | 0.00 | 0.00 | 0.00 | 72 | 1009.0 |
| 20260503033703 | 2 | 264 | 0.0 | 0.0 | 0.00 | 0.00 | 0.00 | 71 | 1009.0 |
| 20260503033205 | 2 | 264 | 0.0 | 0.0 | 0.00 | 0.00 | 0.00 | 71 | 1009.0 |
| 20260503032704 | 2 | 264 | 0.0 | 0.0 | 0.00 | 0.00 | 0.00 | 70 | 1008.0 |
| 20260503032204 | 2 | 264 | 0.0 | 0.0 | 0.00 | 0.00 | 0.00 | 70 | 1008.0 |
| 20260503031702 | 2 | 264 | 0.0 | 0.0 | 0.00 | 0.00 | 0.00 | 69 | 1008.0 |
| 20260503031202 | 2 | 258 | 0.0 | 0.0 | 0.00 | 0.00 | 0.00 | 70 | 1009.0 |
| 20260503030702 | 2 | 258 | 0.0 | 0.0 | 0.00 | 0.00 | 0.00 | 69 | 1009.0 |
| 20260503030202 | 2 | 258 | 0.0 | 0.0 | 0.00 | 0.00 | 0.00 | 68 | 1009.0 |
| 20260503025702 | 3 | 258 | 0.0 | 0.0 | 0.00 | 0.00 | 0.00 | 68 | 1009.0 |
| 20260503025202 | 3 | 258 | 0.0 | 0.0 | 0.00 | 0.00 | 0.00 | 68 | 1009.0 |
| 20260503024702 | 3 | 258 | 0.0 | 0.0 | 0.00 | 0.00 | 0.00 | 67 | 1009.0 |
| 20260503024203 | 3 | 258 | 0.0 | 0.0 | 0.00 | 0.00 | 0.00 | 67 | 1009.0 |
| 20260503023702 | 3 | 258 | 0.0 | 0.0 | 0.00 | 0.00 | 0.00 | 66 | 1009.0 |
| 20260503023203 | 3 | 258 | 0.0 | 0.0 | 0.00 | 0.00 | 0.00 | 66 | 1009.0 |
| 20260503022703 | 3 | 258 | 0.0 | 0.0 | 0.00 | 0.00 | 0.00 | 65 | 1009.0 |
| 20260503022202 | 3 | 258 | 0.0 | 0.0 | 0.00 | 0.00 | 0.00 | 64 | 1009.0 |
| 20260503021702 | 3 | 258 | 0.0 | 0.0 | 0.00 | 0.00 | 0.00 | 63 | 1009.0 |
| 20260503021204 | 3 | 258 | 0.0 | 0.0 | 0.00 | 0.00 | 0.00 | 62 | 1009.0 |
| 20260503020702 | 3 | 258 | 0.0 | 0.0 | 0.00 | 0.00 | 0.00 | 63 | 1009.0 |
| 20260503020204 | 4 | 258 | 0.0 | 0.0 | 0.00 | 0.00 | 0.00 | 62 | 1009.0 |
| 20260503015704 | 4 | 258 | 0.0 | 0.0 | 0.00 | 0.00 | 0.00 | 61 | 1009.0 |
| 20260503015203 | 4 | 258 | 0.0 | 0.0 | 0.00 | 0.00 | 0.00 | 59 | 1009.0 |
| 20260503014702 | 4 | 258 | 0.0 | 0.0 | 0.00 | 0.00 | 0.00 | 59 | 1009.0 |
| 20260503014203 | 4 | 258 | 0.0 | 0.0 | 0.00 | 0.00 | 0.00 | 59 | 1009.0 |
| 20260503013702 | 5 | 258 | 0.0 | 0.0 | 0.00 | 0.00 | 0.00 | 58 | 1009.0 |
| 20260503013202 | 5 | 258 | 0.0 | 0.0 | 0.00 | 0.00 | 0.00 | 57 | 1009.0 |
| 20260503012703 | 5 | 258 | 0.0 | 0.0 | 0.00 | 0.00 | 0.00 | 56 | 1009.0 |
| 20260503012202 | 5 | 258 | 0.0 | 0.0 | 0.00 | 0.00 | 0.00 | 55 | 1009.0 |
| 20260503011702 | 5 | 258 | 0.0 | 0.0 | 0.00 | 0.00 | 0.00 | 54 | 1009.0 |
| 20260503011202 | 5 | 258 | 0.0 | 0.0 | 0.00 | 0.00 | 0.00 | 53 | 1008.0 |
| 20260503010703 | 6 | 258 | 0.0 | 0.0 | 0.00 | 0.00 | 0.00 | 53 | 1008.0 |
| 20260503010204 | 6 | 258 | 0.0 | 0.0 | 0.00 | 0.00 | 0.00 | 51 | 1008.0 |
| 20260503005704 | 6 | 258 | 0.0 | 0.0 | 0.00 | 0.00 | 0.00 | 51 | 1008.0 |
| 20260503005202 | 6 | 258 | 0.0 | 0.0 | 0.00 | 0.00 | 0.00 | 50 | 1008.0 |
| 20260503004703 | 6 | 258 | 0.0 | 0.0 | 0.00 | 0.00 | 0.00 | 50 | 1008.0 |
| 20260503004203 | 6 | 258 | 0.0 | 0.0 | 0.00 | 0.00 | 0.00 | 49 | 1008.0 |
| 20260503003702 | 7 | 258 | 0.0 | 0.0 | 0.00 | 0.00 | 0.00 | 48 | 1008.0 |
| 20260503003202 | 7 | 258 | 0.0 | 0.0 | 0.00 | 0.00 | 0.00 | 48 | 1008.0 |
| 20260503002702 | 7 | 258 | 0.0 | 0.0 | 0.00 | 0.00 | 0.00 | 47 | 1008.0 |
| 20260503002202 | 7 | 258 | 0.0 | 0.0 | 0.00 | 0.00 | 0.00 | 47 | 1008.0 |
| 20260503001702 | 7 | 258 | 0.0 | 0.0 | 0.00 | 0.00 | 0.00 | 44 | 1008.0 |
| 20260503001202 | 8 | 258 | 0.0 | 0.0 | 0.00 | 0.00 | 0.00 | 46 | 1008.0 |
| 20260503000703 | 8 | 258 | 0.0 | 0.0 | 0.00 | 0.00 | 0.00 | 44 | 1008.0 |
| 20260503000203 | 8 | 258 | 0.0 | 0.0 | 0.00 | 0.00 | 0.00 | 44 | 1008.0 |
| 20260502235702 | 8 | 264 | 0.0 | 0.0 | 0.00 | 0.00 | 0.00 | 43 | 1008.0 |
| 20260502235202 | 8 | 264 | 3.2 | 3.2 | 0.00 | 0.00 | 0.00 | 44 | 1008.0 |
| 20260502234228 | 8 | 24 | 0.0 | 0.0 | 0.00 | 0.00 | 0.00 | 45 | 1008.0 |
| 20260502233702 | 8 | 6 | 0.0 | 0.0 | 0.00 | 0.00 | 0.00 | 43 | 1008.0 |
| 20260502233203 | 8 | 224 | 0.0 | 0.0 | 0.00 | 0.00 | 0.00 | 43 | 1008.0 |
| 20260502232702 | 8 | 270 | 0.0 | 0.0 | 0.00 | 0.00 | 0.00 | 43 | 1008.0 |
| 20260502232203 | 8 | 270 | 3.2 | 3.2 | 0.00 | 0.00 | 0.00 | 42 | 1008.0 |
| 20260502231703 | 8 | 282 | 1.6 | 1.6 | 0.00 | 0.00 | 0.00 | 42 | 1008.0 |
| 20260502231203 | 8 | 270 | 3.2 | 3.2 | 0.00 | 0.00 | 0.00 | 42 | 1008.0 |
| 20260502230202 | 8 | 270 | 0.0 | 0.0 | 0.00 | 0.00 | 0.00 | 43 | 1008.0 |
| 20260502225702 | 8 | 270 | 0.0 | 0.0 | 0.00 | 0.00 | 0.00 | 43 | 1008.0 |
| 20260502225203 | 8 | 324 | 4.8 | 6.4 | 0.00 | 0.00 | 0.00 | 42 | 1008.0 |
| 20260502224703 | 8 | 342 | 0.0 | 0.0 | 0.00 | 0.00 | 0.00 | 41 | 1008.0 |
| 20260502224204 | 8 | 324 | 0.0 | 0.0 | 0.00 | 0.00 | 0.00 | 42 | 1008.0 |
| 20260502223703 | 8 | 354 | 1.6 | 1.6 | 0.00 | 0.00 | 0.00 | 43 | 1008.0 |
| 20260502223202 | 8 | 324 | 3.2 | 3.2 | 0.00 | 0.00 | 0.00 | 42 | 1008.0 |
| 20260502222702 | 9 | 228 | 1.6 | 1.6 | 0.00 | 0.00 | 0.00 | 43 | 1008.0 |
| 20260502222202 | 9 | 276 | 0.0 | 0.0 | 0.00 | 0.00 | 0.00 | 42 | 1008.0 |
| 20260502221702 | 9 | 312 | 3.2 | 3.2 | 0.00 | 0.00 | 0.00 | 44 | 1008.0 |
| 20260502221202 | 8 | 83 | 3.2 | 3.2 | 0.00 | 0.00 | 0.00 | 42 | 1009.0 |
| 20260502220703 | 8 | 306 | 0.0 | 0.0 | 0.00 | 0.00 | 0.00 | 42 | 1009.0 |
| 20260502220203 | 8 | 243 | 6.4 | 6.4 | 0.00 | 0.00 | 0.00 | 42 | 1009.0 |
| 20260502215702 | 8 | 0 | 3.2 | 3.2 | 0.00 | 0.00 | 0.00 | 41 | 1009.0 |
| 20260502215202 | 9 | 258 | 3.2 | 3.2 | 0.00 | 0.00 | 0.00 | 42 | 1009.0 |
| 20260502214702 | 9 | 318 | 3.2 | 3.2 | 0.00 | 0.00 | 0.00 | 42 | 1009.0 |
| 20260502214202 | 9 | 240 | 3.2 | 3.2 | 0.00 | 0.00 | 0.00 | 44 | 1009.0 |
| 20260502213702 | 8 | 240 | 0.0 | 0.0 | 0.00 | 0.00 | 0.00 | 42 | 1009.0 |
| 20260502213203 | 8 | 246 | 4.8 | 4.8 | 0.00 | 0.00 | 0.00 | 42 | 1009.0 |
| 20260502212702 | 9 | 264 | 0.0 | 0.0 | 0.00 | 0.00 | 0.00 | 42 | 1008.0 |
| 20260502212202 | 9 | 330 | 3.2 | 3.2 | 0.00 | 0.00 | 0.00 | 42 | 1008.0 |
| 20260502211702 | 9 | 238 | 0.0 | 0.0 | 0.00 | 0.00 | 0.00 | 41 | 1008.0 |
| 20260502211202 | 9 | 256 | 6.4 | 6.4 | 0.00 | 0.00 | 0.00 | 41 | 1009.0 |
| 20260502210702 | 8 | 324 | 0.0 | 0.0 | 0.00 | 0.00 | 0.00 | 43 | 1009.0 |
| 20260502210203 | 8 | 264 | 3.2 | 3.2 | 0.00 | 0.00 | 0.00 | 42 | 1009.0 |
| 20260502205702 | 8 | 228 | 4.8 | 6.4 | 0.00 | 0.00 | 0.00 | 41 | 1009.0 |
| 20260502205203 | 9 | 336 | 3.2 | 3.2 | 0.00 | 0.00 | 0.00 | 40 | 1009.0 |
| 20260502204702 | 9 | 288 | 0.0 | 0.0 | 0.00 | 0.00 | 0.00 | 43 | 1009.0 |
| 20260502204202 | 8 | 329 | 3.2 | 3.2 | 0.00 | 0.00 | 0.00 | 44 | 1009.0 |
| 20260502203702 | 8 | 353 | 4.8 | 6.4 | 0.00 | 0.00 | 0.00 | 40 | 1009.0 |
| 20260502203203 | 8 | 348 | 8.0 | 8.0 | 0.00 | 0.00 | 0.00 | 41 | 1009.0 |
| 20260502202703 | 8 | 6 | 1.6 | 1.6 | 0.00 | 0.00 | 0.00 | 42 | 1009.0 |
| 20260502202202 | 8 | 264 | 3.2 | 3.2 | 0.00 | 0.00 | 0.00 | 41 | 1009.0 |
| 20260502201703 | 8 | 228 | 4.8 | 4.8 | 0.00 | 0.00 | 0.00 | 43 | 1009.0 |
| 20260502201202 | 8 | 354 | 1.6 | 1.6 | 0.00 | 0.00 | 0.00 | 43 | 1009.0 |
| 20260502200702 | 8 | 264 | 3.2 | 3.2 | 0.00 | 0.00 | 0.00 | 41 | 1009.0 |
| 20260502200202 | 8 | 270 | 3.2 | 3.2 | 0.00 | 0.00 | 0.00 | 41 | 1009.0 |
| 20260502195703 | 8 | 234 | 0.0 | 0.0 | 0.00 | 0.00 | 0.00 | 41 | 1009.0 |
| 20260502195202 | 8 | 264 | 0.0 | 0.0 | 0.00 | 0.00 | 0.00 | 42 | 1009.0 |
| 20260502194703 | 8 | 252 | 3.2 | 3.2 | 0.00 | 0.00 | 0.00 | 42 | 1009.0 |